Time,TemperatureF,DewpointF,PressureIn,WindDirection,WindDirectionDegrees,WindSpeedMPH,WindSpeedGustMPH,Humidity,HourlyPrecipIn,Conditions,Clouds,dailyrainin,SoftwareType,DateUTC
2013-09-14 00:01:00,44.4,20.5,29.35,North,0,0.0,0.0,58,0.00,,,0.00,meteohub,2013-09-14 04:01:00,
2013-09-14 00:02:00,44.4,20.5,29.35,North,0,0.0,0.0,58,0.00,,,0.00,meteohub,2013-09-14 04:02:00,
2013-09-14 00:03:00,44.4,20.5,29.35,North,0,0.0,0.0,58,0.00,,,0.00,meteohub,2013-09-14 04:03:00,
2013-09-14 00:08:00,44.2,20.3,29.35,North,0,0.0,0.0,58,0.00,,,0.00,meteohub,2013-09-14 04:08:00,
2013-09-14 00:13:00,44.2,20.3,29.35,North,0,0.0,0.0,58,0.00,,,0.00,meteohub,2013-09-14 04:13:00,
2013-09-14 00:18:00,44.1,20.1,29.35,North,0,0.0,0.0,58,0.00,,,0.00,meteohub,2013-09-14 04:18:00,
2013-09-14 00:24:00,44.1,20.1,29.35,North,0,0.0,0.0,58,0.00,,,0.00,meteohub,2013-09-14 04:24:00,
2013-09-14 00:29:00,44.1,20.1,29.35,North,0,0.0,0.0,58,0.00,,,0.00,meteohub,2013-09-14 04:29:00,
2013-09-14 00:34:00,44.1,20.7,29.35,North,0,0.0,0.0,59,0.00,,,0.00,meteohub,2013-09-14 04:34:00,
2013-09-14 00:39:00,43.9,20.7,29.35,North,0,0.0,0.0,59,0.00,,,0.00,meteohub,2013-09-14 04:39:00,
2013-09-14 00:44:00,43.9,20.7,29.35,WNW,292,0.0,0.0,59,0.00,,,0.00,meteohub,2013-09-14 04:44:00,
2013-09-14 00:49:00,43.9,20.7,29.35,WNW,292,0.0,2.0,59,0.00,,,0.00,meteohub,2013-09-14 04:49:00,
2013-09-14 00:54:00,43.7,20.5,29.35,WNW,292,0.0,2.0,59,0.00,,,0.00,meteohub,2013-09-14 04:54:00,
2013-09-14 00:59:00,43.7,20.5,29.35,WNW,292,0.0,0.0,59,0.00,,,0.00,meteohub,2013-09-14 04:59:00,
2013-09-14 01:04:00,43.7,20.5,29.35,WNW,292,0.0,0.0,59,0.00,,,0.00,meteohub,2013-09-14 05:04:00,
2013-09-14 01:09:00,43.5,20.3,29.35,WNW,292,0.0,0.0,59,0.00,,,0.00,meteohub,2013-09-14 05:09:00,
2013-09-14 01:14:00,43.5,20.3,29.35,WNW,292,0.0,0.0,59,0.00,,,0.00,meteohub,2013-09-14 05:14:00,
2013-09-14 01:19:00,43.5,20.3,29.35,WNW,292,0.0,0.0,59,0.00,,,0.00,meteohub,2013-09-14 05:19:00,
2013-09-14 01:24:00,43.5,20.3,29.35,WNW,292,0.0,0.0,59,0.00,,,0.00,meteohub,2013-09-14 05:24:00,
2013-09-14 01:29:00,43.5,20.3,29.35,WNW,292,0.0,0.0,59,0.00,,,0.00,meteohub,2013-09-14 05:29:00,
2013-09-14 01:34:00,43.5,20.3,29.35,WNW,292,0.0,0.0,59,0.00,,,0.00,meteohub,2013-09-14 05:34:00,
2013-09-14 01:39:00,43.5,20.3,29.35,West,270,0.0,0.0,59,0.00,,,0.00,meteohub,2013-09-14 05:39:00,
2013-09-14 01:45:00,43.5,20.3,29.35,West,270,0.0,0.0,59,0.00,,,0.00,meteohub,2013-09-14 05:45:00,
2013-09-14 01:50:00,43.5,20.3,29.35,West,270,0.0,0.0,59,0.00,,,0.00,meteohub,2013-09-14 05:50:00,
2013-09-14 01:55:00,43.5,20.8,29.35,West,270,0.0,0.0,60,0.00,,,0.00,meteohub,2013-09-14 05:55:00,
2013-09-14 02:00:00,43.5,20.8,29.35,West,270,0.0,0.0,60,0.00,,,0.00,meteohub,2013-09-14 06:00:00,
2013-09-14 02:05:00,43.5,20.8,29.35,West,270,0.0,0.0,60,0.00,,,0.00,meteohub,2013-09-14 06:05:00,
2013-09-14 02:10:00,43.5,20.8,29.35,West,270,0.0,0.0,60,0.00,,,0.00,meteohub,2013-09-14 06:10:00,
2013-09-14 02:15:00,43.5,20.8,29.35,West,270,0.0,0.0,60,0.00,,,0.00,meteohub,2013-09-14 06:15:00,
2013-09-14 02:20:00,43.3,20.7,29.35,West,270,0.0,0.0,60,0.00,,,0.00,meteohub,2013-09-14 06:20:00,
2013-09-14 02:25:00,43.3,20.7,29.35,West,270,0.0,0.0,60,0.00,,,0.00,meteohub,2013-09-14 06:25:00,
2013-09-14 02:31:00,43.3,20.7,29.35,West,270,1.0,0.0,60,0.00,,,0.00,meteohub,2013-09-14 06:31:00,
2013-09-14 02:36:00,43.2,20.5,29.35,West,270,0.0,1.0,60,0.00,,,0.00,meteohub,2013-09-14 06:36:00,
2013-09-14 02:41:00,43.0,20.3,29.35,West,270,1.0,1.0,60,0.00,,,0.00,meteohub,2013-09-14 06:41:00,
2013-09-14 02:46:00,43.0,20.3,29.35,West,270,0.0,1.0,60,0.00,,,0.00,meteohub,2013-09-14 06:46:00,
2013-09-14 02:51:00,42.8,20.1,29.35,West,270,0.0,1.0,60,0.00,,,0.00,meteohub,2013-09-14 06:51:00,
2013-09-14 02:56:00,42.8,20.1,29.35,West,270,0.0,1.0,60,0.00,,,0.00,meteohub,2013-09-14 06:56:00,
2013-09-14 03:01:00,42.4,20.5,29.35,West,270,0.0,0.0,61,0.00,,,0.00,meteohub,2013-09-14 07:01:00,
2013-09-14 03:06:00,42.4,20.5,29.35,East,90,0.0,0.0,61,0.00,,,0.00,meteohub,2013-09-14 07:06:00,
2013-09-14 03:11:00,42.4,20.5,29.35,West,270,0.0,2.0,61,0.00,,,0.00,meteohub,2013-09-14 07:11:00,
2013-09-14 03:16:00,42.4,21.0,29.35,SE,135,0.0,2.0,62,0.00,,,0.00,meteohub,2013-09-14 07:16:00,
2013-09-14 03:21:00,42.4,21.6,29.35,WSW,248,0.0,2.0,63,0.00,,,0.00,meteohub,2013-09-14 07:21:00,
2013-09-14 03:26:00,42.4,21.6,29.35,WSW,248,0.0,3.0,63,0.00,,,0.00,meteohub,2013-09-14 07:26:00,
2013-09-14 03:31:00,42.4,21.6,29.38,WSW,248,0.0,3.0,63,0.00,,,0.00,meteohub,2013-09-14 07:31:00,
2013-09-14 03:36:00,42.3,21.4,29.38,WSW,248,0.0,3.0,63,0.00,,,0.00,meteohub,2013-09-14 07:36:00,
2013-09-14 03:42:00,42.1,21.2,29.35,WSW,248,0.0,1.0,63,0.00,,,0.00,meteohub,2013-09-14 07:42:00,
2013-09-14 03:47:00,41.9,20.5,29.35,WSW,248,2.0,2.0,62,0.00,,,0.00,meteohub,2013-09-14 07:47:00,
2013-09-14 03:52:00,41.7,20.8,29.35,WSW,248,0.0,2.0,63,0.00,,,0.00,meteohub,2013-09-14 07:52:00,
2013-09-14 03:57:00,41.7,20.8,29.35,WSW,248,0.0,2.0,63,0.00,,,0.00,meteohub,2013-09-14 07:57:00,
2013-09-14 04:02:00,41.4,21.2,29.38,WSW,248,0.0,2.0,64,0.00,,,0.00,meteohub,2013-09-14 08:02:00,
2013-09-14 04:07:00,41.2,21.0,29.38,WSW,248,2.0,2.0,64,0.00,,,0.00,meteohub,2013-09-14 08:07:00,
2013-09-14 04:12:00,41.2,21.0,29.38,WSW,248,0.0,3.0,64,0.00,,,0.00,meteohub,2013-09-14 08:12:00,
2013-09-14 04:17:00,41.2,21.0,29.38,WSW,248,0.0,3.0,64,0.00,,,0.00,meteohub,2013-09-14 08:17:00,
2013-09-14 04:22:00,41.0,20.8,29.38,WSW,248,0.0,3.0,64,0.00,,,0.00,meteohub,2013-09-14 08:22:00,
2013-09-14 04:27:00,40.8,21.2,29.38,WSW,248,0.0,2.0,65,0.00,,,0.00,meteohub,2013-09-14 08:27:00,
2013-09-14 04:32:00,40.6,21.0,29.38,WSW,248,0.0,2.0,65,0.00,,,0.00,meteohub,2013-09-14 08:32:00,
2013-09-14 04:37:00,40.6,21.0,29.38,WSW,248,1.0,2.0,65,0.00,,,0.00,meteohub,2013-09-14 08:37:00,
2013-09-14 04:42:00,40.6,21.6,29.38,West,270,0.0,2.0,66,0.00,,,0.00,meteohub,2013-09-14 08:42:00,
2013-09-14 04:47:00,40.6,21.6,29.38,West,270,0.0,2.0,66,0.00,,,0.00,meteohub,2013-09-14 08:47:00,
2013-09-14 04:52:00,40.6,21.6,29.38,West,270,0.0,2.0,66,0.00,,,0.00,meteohub,2013-09-14 08:52:00,
2013-09-14 04:57:00,40.6,21.6,29.38,West,270,0.0,1.0,66,0.00,,,0.00,meteohub,2013-09-14 08:57:00,
2013-09-14 05:02:00,40.5,21.4,29.38,West,270,0.0,0.0,66,0.00,,,0.00,meteohub,2013-09-14 09:02:00,
2013-09-14 05:07:00,40.5,21.4,29.38,West,270,0.0,0.0,66,0.00,,,0.00,meteohub,2013-09-14 09:07:00,
2013-09-14 05:12:00,40.5,21.4,29.38,West,270,0.0,0.0,66,0.00,,,0.00,meteohub,2013-09-14 09:12:00,
2013-09-14 05:17:00,40.3,21.2,29.38,West,270,0.0,0.0,66,0.00,,,0.00,meteohub,2013-09-14 09:17:00,
2013-09-14 05:22:00,40.3,21.2,29.38,West,270,0.0,0.0,66,0.00,,,0.00,meteohub,2013-09-14 09:22:00,
2013-09-14 05:27:00,39.9,20.8,29.38,West,270,0.0,0.0,66,0.00,,,0.00,meteohub,2013-09-14 09:27:00,
2013-09-14 05:32:00,39.9,20.8,29.38,West,270,0.0,0.0,66,0.00,,,0.00,meteohub,2013-09-14 09:32:00,
2013-09-14 05:37:00,39.9,20.8,29.38,West,270,0.0,0.0,66,0.00,,,0.00,meteohub,2013-09-14 09:37:00,
2013-09-14 05:42:00,39.9,21.4,29.38,West,270,0.0,0.0,67,0.00,,,0.00,meteohub,2013-09-14 09:42:00,
2013-09-14 05:47:00,39.7,21.2,29.38,West,270,1.0,0.0,67,0.00,,,0.00,meteohub,2013-09-14 09:47:00,
2013-09-14 05:52:00,39.6,21.6,29.38,West,270,0.0,1.0,68,0.00,,,0.00,meteohub,2013-09-14 09:52:00,
2013-09-14 05:57:00,39.6,21.6,29.38,West,270,1.0,1.0,68,0.00,,,0.00,meteohub,2013-09-14 09:57:00,
2013-09-14 06:02:00,39.7,21.7,29.38,West,270,1.0,1.0,68,0.00,,,0.00,meteohub,2013-09-14 10:02:00,
2013-09-14 06:07:00,39.6,21.6,29.38,West,270,0.0,1.0,68,0.00,,,0.00,meteohub,2013-09-14 10:07:00,
2013-09-14 06:12:00,39.6,21.6,29.38,West,270,0.0,1.0,68,0.00,,,0.00,meteohub,2013-09-14 10:12:00,
2013-09-14 06:17:00,39.6,21.6,29.38,West,270,0.0,1.0,68,0.00,,,0.00,meteohub,2013-09-14 10:17:00,
2013-09-14 06:22:00,39.6,21.6,29.38,West,270,0.0,0.0,68,0.00,,,0.00,meteohub,2013-09-14 10:22:00,
2013-09-14 06:27:00,39.4,21.9,29.38,West,270,1.0,0.0,69,0.00,,,0.00,meteohub,2013-09-14 10:27:00,
2013-09-14 06:32:00,39.4,21.9,29.41,West,270,1.0,1.0,69,0.00,,,0.00,meteohub,2013-09-14 10:32:00,
2013-09-14 06:37:00,39.4,21.9,29.41,West,270,0.0,2.0,69,0.00,,,0.00,meteohub,2013-09-14 10:37:00,
2013-09-14 06:42:00,39.2,21.7,29.41,West,270,0.0,2.0,69,0.00,,,0.00,meteohub,2013-09-14 10:42:00,
2013-09-14 06:47:00,39.2,21.7,29.38,West,270,0.0,2.0,69,0.00,,,0.00,meteohub,2013-09-14 10:47:00,
2013-09-14 06:52:00,39.4,22.3,29.38,West,270,0.0,0.0,70,0.00,,,0.00,meteohub,2013-09-14 10:52:00,
2013-09-14 06:57:00,39.6,22.5,29.38,West,270,0.0,0.0,70,0.00,,,0.00,meteohub,2013-09-14 10:57:00,
2013-09-14 07:02:00,39.7,22.6,29.41,West,270,0.0,0.0,70,0.00,,,0.00,meteohub,2013-09-14 11:02:00,
2013-09-14 07:07:00,39.7,22.6,29.41,West,270,0.0,0.0,70,0.00,,,0.00,meteohub,2013-09-14 11:07:00,
2013-09-14 07:12:00,39.9,22.8,29.44,West,270,0.0,0.0,70,0.00,,,0.00,meteohub,2013-09-14 11:12:00,
2013-09-14 07:17:00,39.9,22.8,29.44,West,270,0.0,1.0,70,0.00,,,0.00,meteohub,2013-09-14 11:17:00,
2013-09-14 07:22:00,40.3,23.2,29.44,West,270,1.0,1.0,70,0.00,,,0.00,meteohub,2013-09-14 11:22:00,
2013-09-14 07:27:00,40.3,23.7,29.41,West,270,1.0,2.0,71,0.00,,,0.00,meteohub,2013-09-14 11:27:00,
2013-09-14 07:32:00,40.5,23.7,29.41,West,270,1.0,2.0,71,0.00,,,0.00,meteohub,2013-09-14 11:32:00,
2013-09-14 07:37:00,40.6,24.4,29.41,West,270,1.0,2.0,72,0.00,,,0.00,meteohub,2013-09-14 11:37:00,
2013-09-14 07:42:00,41.0,24.3,29.41,West,270,0.0,2.0,71,0.00,,,0.00,meteohub,2013-09-14 11:42:00,
2013-09-14 07:47:00,41.2,25.0,29.41,West,270,0.0,2.0,72,0.00,,,0.00,meteohub,2013-09-14 11:47:00,
2013-09-14 07:52:00,41.5,25.3,29.41,West,270,2.0,2.0,72,0.00,,,0.00,meteohub,2013-09-14 11:52:00,
2013-09-14 07:57:00,41.7,25.9,29.41,West,270,2.0,2.0,73,0.00,,,0.00,meteohub,2013-09-14 11:57:00,
2013-09-14 08:02:00,42.3,26.4,29.41,West,270,1.0,2.0,73,0.00,,,0.00,meteohub,2013-09-14 12:02:00,
2013-09-14 08:07:00,42.8,27.0,29.41,West,270,2.0,2.0,73,0.00,,,0.00,meteohub,2013-09-14 12:07:00,
2013-09-14 08:12:00,43.2,27.1,29.41,West,270,0.0,2.0,73,0.00,,,0.00,meteohub,2013-09-14 12:12:00,
2013-09-14 08:17:00,43.7,27.7,29.44,West,270,0.0,2.0,73,0.00,,,0.00,meteohub,2013-09-14 12:17:00,
2013-09-14 08:22:00,44.1,28.0,29.44,West,270,1.0,2.0,73,0.00,,,0.00,meteohub,2013-09-14 12:22:00,
2013-09-14 08:27:00,44.8,28.8,29.41,West,270,0.0,3.0,73,0.00,,,0.00,meteohub,2013-09-14 12:27:00,
2013-09-14 08:32:00,45.1,29.1,29.41,West,270,1.0,4.0,73,0.00,,,0.00,meteohub,2013-09-14 12:32:00,
2013-09-14 08:37:00,45.7,29.5,29.41,West,270,1.0,4.0,73,0.00,,,0.00,meteohub,2013-09-14 12:37:00,
2013-09-14 08:42:00,46.2,29.7,29.38,West,270,2.0,4.0,72,0.00,,,0.00,meteohub,2013-09-14 12:42:00,
2013-09-14 08:47:00,46.8,29.7,29.38,WNW,292,1.0,4.0,71,0.00,,,0.00,meteohub,2013-09-14 12:47:00,
2013-09-14 08:52:00,47.3,30.2,29.38,West,270,1.0,3.0,71,0.00,,,0.00,meteohub,2013-09-14 12:52:00,
2013-09-14 08:57:00,47.8,30.2,29.38,West,270,0.0,3.0,70,0.00,,,0.00,meteohub,2013-09-14 12:57:00,
2013-09-14 09:02:00,48.6,29.8,29.41,West,270,1.0,3.0,68,0.00,,,0.00,meteohub,2013-09-14 13:02:00,
2013-09-14 09:07:00,49.1,29.8,29.41,West,270,0.0,3.0,67,0.00,,,0.00,meteohub,2013-09-14 13:07:00,
2013-09-14 09:12:00,49.6,29.1,29.41,West,270,0.0,3.0,65,0.00,,,0.00,meteohub,2013-09-14 13:12:00,
2013-09-14 09:17:00,50.2,29.1,29.41,West,270,0.0,3.0,64,0.00,,,0.00,meteohub,2013-09-14 13:17:00,
2013-09-14 09:22:00,50.9,28.6,29.41,WSW,248,2.0,3.0,62,0.00,,,0.00,meteohub,2013-09-14 13:22:00,
2013-09-14 09:27:00,51.8,29.5,29.41,North,0,1.0,3.0,62,0.00,,,0.00,meteohub,2013-09-14 13:27:00,
2013-09-14 09:32:00,52.0,27.9,29.41,West,270,0.0,3.0,59,0.00,,,0.00,meteohub,2013-09-14 13:32:00,
2013-09-14 09:37:00,52.7,27.9,29.41,West,270,0.0,4.0,58,0.00,,,0.00,meteohub,2013-09-14 13:37:00,
2013-09-14 09:42:00,53.1,27.5,29.41,North,0,1.0,4.0,57,0.00,,,0.00,meteohub,2013-09-14 13:42:00,
2013-09-14 09:47:00,54.0,28.4,29.41,West,270,2.0,3.0,57,0.00,,,0.00,meteohub,2013-09-14 13:47:00,
2013-09-14 09:52:00,54.7,28.9,29.41,WSW,248,0.0,3.0,57,0.00,,,0.00,meteohub,2013-09-14 13:52:00,
2013-09-14 09:57:00,55.0,28.6,29.41,West,270,2.0,2.0,56,0.00,,,0.00,meteohub,2013-09-14 13:57:00,
2013-09-14 10:02:00,55.4,27.5,29.41,West,270,1.0,2.0,54,0.00,,,0.00,meteohub,2013-09-14 14:02:00,
2013-09-14 10:07:00,56.1,28.9,29.41,West,270,0.0,4.0,55,0.00,,,0.00,meteohub,2013-09-14 14:07:00,
2013-09-14 10:12:00,56.7,28.6,29.44,West,270,0.0,4.0,54,0.00,,,0.00,meteohub,2013-09-14 14:12:00,
2013-09-14 10:17:00,56.8,25.7,29.44,West,270,1.0,4.0,50,0.00,,,0.00,meteohub,2013-09-14 14:17:00,
2013-09-14 10:22:00,57.2,25.3,29.44,West,270,3.0,4.0,49,0.00,,,0.00,meteohub,2013-09-14 14:22:00,
2013-09-14 10:27:00,57.6,25.5,29.41,SW,225,1.0,4.0,49,0.00,,,0.00,meteohub,2013-09-14 14:27:00,
2013-09-14 10:32:00,57.6,24.8,29.41,SW,225,0.0,4.0,48,0.00,,,0.00,meteohub,2013-09-14 14:32:00,
2013-09-14 10:37:00,57.6,24.8,29.41,SW,225,0.0,4.0,48,0.00,,,0.00,meteohub,2013-09-14 14:37:00,
2013-09-14 10:47:00,59.2,24.4,29.41,West,270,3.0,3.0,46,0.00,,,0.00,meteohub,2013-09-14 14:47:00,
2013-09-14 10:52:00,59.2,24.4,29.41,West,270,3.0,-999.0,46,0.00,,,0.00,meteohub,2013-09-14 14:52:00,
2013-09-14 11:45:00,62.2,25.0,29.41,WSW,248,3.0,3.0,44,0.00,,,0.00,meteohub,2013-09-14 15:45:00,
2013-09-14 11:50:00,62.2,25.0,29.41,WSW,248,3.0,3.0,44,0.00,,,0.00,meteohub,2013-09-14 15:50:00,
2013-09-14 11:55:00,63.0,25.7,29.41,WSW,248,1.0,3.0,44,0.00,,,0.00,meteohub,2013-09-14 15:55:00,
2013-09-14 12:00:00,63.0,25.7,29.41,WSW,248,1.0,3.0,44,0.00,,,0.00,meteohub,2013-09-14 16:00:00,
2013-09-14 12:05:00,63.5,26.1,29.41,WSW,248,0.0,2.0,44,0.00,,,0.00,meteohub,2013-09-14 16:05:00,
2013-09-14 12:11:00,63.5,26.1,29.41,West,270,3.0,3.0,44,0.00,,,0.00,meteohub,2013-09-14 16:11:00,
2013-09-14 12:16:00,63.3,25.0,29.41,SW,225,1.0,4.0,43,0.00,,,0.00,meteohub,2013-09-14 16:16:00,
2013-09-14 12:21:00,63.3,25.0,29.41,West,270,2.0,4.0,43,0.00,,,0.00,meteohub,2013-09-14 16:21:00,
2013-09-14 12:26:00,63.1,24.8,29.41,SW,225,2.0,5.0,43,0.00,,,0.00,meteohub,2013-09-14 16:26:00,
2013-09-14 12:31:00,63.5,25.2,29.41,North,0,1.0,5.0,43,0.00,,,0.00,meteohub,2013-09-14 16:31:00,
2013-09-14 12:36:00,63.5,25.2,29.41,WSW,248,4.0,5.0,43,0.00,,,0.00,meteohub,2013-09-14 16:36:00,
2013-09-14 12:41:00,63.5,25.2,29.41,WSW,248,2.0,5.0,43,0.00,,,0.00,meteohub,2013-09-14 16:41:00,
2013-09-14 12:46:00,64.2,25.7,29.41,SSW,202,0.0,5.0,43,0.00,,,0.00,meteohub,2013-09-14 16:46:00,
2013-09-14 12:51:00,64.4,25.9,29.41,West,270,2.0,5.0,43,0.00,,,0.00,meteohub,2013-09-14 16:51:00,
2013-09-14 12:56:00,64.2,23.5,29.41,North,0,1.0,5.0,41,0.00,,,0.00,meteohub,2013-09-14 16:56:00,
2013-09-14 13:01:00,64.2,23.5,29.41,NNW,338,1.0,5.0,41,0.00,,,0.00,meteohub,2013-09-14 17:01:00,
2013-09-14 13:06:00,64.2,23.5,29.41,WNW,292,2.0,5.0,41,0.00,,,0.00,meteohub,2013-09-14 17:06:00,
2013-09-14 13:11:00,64.2,23.5,29.41,NNW,338,2.0,4.0,41,0.00,,,0.00,meteohub,2013-09-14 17:11:00,
2013-09-14 13:16:00,64.0,23.4,29.41,ENE,68,2.0,4.0,41,0.00,,,0.00,meteohub,2013-09-14 17:16:00,
2013-09-14 13:21:00,64.4,22.5,29.41,North,0,2.0,4.0,40,0.00,,,0.00,meteohub,2013-09-14 17:21:00,
2013-09-14 13:26:00,64.6,22.6,29.41,ENE,68,1.0,5.0,40,0.00,,,0.00,meteohub,2013-09-14 17:26:00,
2013-09-14 13:31:00,65.1,23.2,29.41,WNW,292,3.0,5.0,40,0.00,,,0.00,meteohub,2013-09-14 17:31:00,
2013-09-14 13:36:00,65.1,23.2,29.41,SW,225,0.0,5.0,40,0.00,,,0.00,meteohub,2013-09-14 17:36:00,
2013-09-14 13:41:00,65.1,23.2,29.41,West,270,2.0,5.0,40,0.00,,,0.00,meteohub,2013-09-14 17:41:00,
2013-09-14 13:46:00,65.7,23.5,29.41,SW,225,1.0,5.0,40,0.00,,,0.00,meteohub,2013-09-14 17:46:00,
2013-09-14 13:52:00,65.8,23.7,29.41,West,270,1.0,5.0,40,0.00,,,0.00,meteohub,2013-09-14 17:52:00,
2013-09-14 13:57:00,65.7,21.0,29.38,SW,225,1.0,4.0,38,0.00,,,0.00,meteohub,2013-09-14 17:57:00,
2013-09-14 14:02:00,66.0,21.4,29.38,WSW,248,4.0,4.0,38,0.00,,,0.00,meteohub,2013-09-14 18:02:00,
2013-09-14 14:07:00,66.2,20.1,29.38,SW,225,3.0,4.0,37,0.00,,,0.00,meteohub,2013-09-14 18:07:00,
2013-09-14 14:12:00,66.7,20.7,29.38,SW,225,0.0,5.0,37,0.00,,,0.00,meteohub,2013-09-14 18:12:00,
2013-09-14 14:17:00,66.9,20.8,29.38,SW,225,2.0,5.0,37,0.00,,,0.00,meteohub,2013-09-14 18:17:00,
2013-09-14 14:22:00,66.9,20.8,29.38,WSW,248,2.0,5.0,37,0.00,,,0.00,meteohub,2013-09-14 18:22:00,
2013-09-14 14:27:00,66.7,20.7,29.35,SW,225,1.0,5.0,37,0.00,,,0.00,meteohub,2013-09-14 18:27:00,
2013-09-14 14:32:00,66.7,20.7,29.35,WSW,248,0.0,5.0,37,0.00,,,0.00,meteohub,2013-09-14 18:32:00,
2013-09-14 14:37:00,67.1,20.8,29.35,WSW,248,1.0,5.0,37,0.00,,,0.00,meteohub,2013-09-14 18:37:00,
2013-09-14 14:42:00,67.8,21.6,29.35,SW,225,1.0,5.0,37,0.00,,,0.00,meteohub,2013-09-14 18:42:00,
2013-09-14 14:47:00,68.7,22.3,29.35,SSW,202,2.0,5.0,37,0.00,,,0.00,meteohub,2013-09-14 18:47:00,
2013-09-14 14:52:00,68.2,21.7,29.35,SW,225,1.0,4.0,37,0.00,,,0.00,meteohub,2013-09-14 18:52:00,
2013-09-14 14:57:00,68.4,21.9,29.35,SSE,158,1.0,7.0,37,0.00,,,0.00,meteohub,2013-09-14 18:57:00,
2013-09-14 15:02:00,69.4,22.8,29.35,SW,225,1.0,7.0,37,0.00,,,0.00,meteohub,2013-09-14 19:02:00,
2013-09-14 15:07:00,70.2,23.4,29.35,SW,225,1.0,3.0,37,0.00,,,0.00,meteohub,2013-09-14 19:07:00,
2013-09-14 15:12:00,69.4,22.8,29.35,East,90,2.0,3.0,37,0.00,,,0.00,meteohub,2013-09-14 19:12:00,
2013-09-14 15:17:00,69.6,23.0,29.35,West,270,3.0,6.0,37,0.00,,,0.00,meteohub,2013-09-14 19:17:00,
2013-09-14 15:22:00,70.9,23.9,29.35,West,270,1.0,6.0,37,0.00,,,0.00,meteohub,2013-09-14 19:22:00,
2013-09-14 15:27:00,70.9,23.9,29.35,ENE,68,0.0,6.0,37,0.00,,,0.00,meteohub,2013-09-14 19:27:00,
2013-09-14 15:32:00,70.7,23.9,29.32,WSW,248,2.0,3.0,37,0.00,,,0.00,meteohub,2013-09-14 19:32:00,
2013-09-14 15:37:00,70.3,23.5,29.32,SSW,202,0.0,4.0,37,0.00,,,0.00,meteohub,2013-09-14 19:37:00,
2013-09-14 15:42:00,71.1,24.1,29.35,SW,225,2.0,4.0,37,0.00,,,0.00,meteohub,2013-09-14 19:42:00,
2013-09-14 15:47:00,72.0,23.4,29.35,NW,315,1.0,4.0,36,0.00,,,0.00,meteohub,2013-09-14 19:47:00,
2013-09-14 15:52:00,72.1,23.5,29.35,SW,225,3.0,3.0,36,0.00,,,0.00,meteohub,2013-09-14 19:52:00,
2013-09-14 15:57:00,72.5,23.9,29.35,SW,225,2.0,3.0,36,0.00,,,0.00,meteohub,2013-09-14 19:57:00,
2013-09-14 16:02:00,72.0,23.4,29.35,NW,315,0.0,3.0,36,0.00,,,0.00,meteohub,2013-09-14 20:02:00,
2013-09-14 16:07:00,71.8,23.2,29.35,SW,225,0.0,4.0,36,0.00,,,0.00,meteohub,2013-09-14 20:07:00,
2013-09-14 16:12:00,71.2,24.3,29.35,SSW,202,6.0,6.0,37,0.00,,,0.00,meteohub,2013-09-14 20:12:00,
2013-09-14 16:17:00,72.1,23.5,29.35,SW,225,0.0,6.0,36,0.00,,,0.00,meteohub,2013-09-14 20:17:00,
2013-09-14 16:22:00,72.5,23.9,29.35,WSW,248,2.0,6.0,36,0.00,,,0.00,meteohub,2013-09-14 20:22:00,
2013-09-14 16:27:00,72.3,23.7,29.35,West,270,2.0,6.0,36,0.00,,,0.00,meteohub,2013-09-14 20:27:00,
2013-09-14 16:32:00,72.0,23.4,29.35,WSW,248,1.0,3.0,36,0.00,,,0.00,meteohub,2013-09-14 20:32:00,
2013-09-14 16:37:00,71.6,23.2,29.35,SW,225,1.0,5.0,36,0.00,,,0.00,meteohub,2013-09-14 20:37:00,
2013-09-14 16:42:00,72.1,23.5,29.35,SW,225,4.0,5.0,36,0.00,,,0.00,meteohub,2013-09-14 20:42:00,
2013-09-14 16:47:00,72.7,23.9,29.35,West,270,3.0,5.0,36,0.00,,,0.00,meteohub,2013-09-14 20:47:00,
2013-09-14 16:52:00,72.5,20.7,29.35,SW,225,2.0,5.0,34,0.00,,,0.00,meteohub,2013-09-14 20:52:00,
2013-09-14 16:57:00,73.4,24.6,29.35,SW,225,3.0,5.0,36,0.00,,,0.00,meteohub,2013-09-14 20:57:00,
2013-09-14 17:02:00,73.8,24.8,29.35,SW,225,2.0,5.0,36,0.00,,,0.00,meteohub,2013-09-14 21:02:00,
2013-09-14 17:07:00,74.3,25.3,29.35,SW,225,0.0,6.0,36,0.00,,,0.00,meteohub,2013-09-14 21:07:00,
2013-09-14 17:12:00,75.4,24.6,29.35,WSW,248,1.0,6.0,35,0.00,,,0.00,meteohub,2013-09-14 21:12:00,
2013-09-14 17:17:00,74.8,25.7,29.32,West,270,2.0,4.0,36,0.00,,,0.00,meteohub,2013-09-14 21:17:00,
2013-09-14 17:22:00,74.1,20.3,29.32,West,270,5.0,6.0,33,0.00,,,0.00,meteohub,2013-09-14 21:22:00,
2013-09-14 17:27:00,74.5,25.3,29.32,SW,225,0.0,6.0,36,0.00,,,0.00,meteohub,2013-09-14 21:27:00,
2013-09-14 17:32:00,74.7,25.5,29.32,West,270,2.0,6.0,36,0.00,,,0.00,meteohub,2013-09-14 21:32:00,
2013-09-14 17:37:00,73.6,24.6,29.32,NW,315,2.0,6.0,36,0.00,,,0.00,meteohub,2013-09-14 21:37:00,
2013-09-14 17:42:00,73.6,24.6,29.29,West,270,3.0,3.0,36,0.00,,,0.00,meteohub,2013-09-14 21:42:00,
2013-09-14 17:47:00,73.4,19.6,29.29,West,270,1.0,4.0,33,0.00,,,0.00,meteohub,2013-09-14 21:47:00,
2013-09-14 17:52:00,73.0,24.3,29.29,SW,225,2.0,4.0,36,0.00,,,0.00,meteohub,2013-09-14 21:52:00,
2013-09-14 17:57:00,72.9,24.1,29.29,SW,225,4.0,4.0,36,0.00,,,0.00,meteohub,2013-09-14 21:57:00,
2013-09-14 18:02:00,73.0,21.0,29.29,WSW,248,0.0,4.0,34,0.00,,,0.00,meteohub,2013-09-14 22:02:00,
2013-09-14 18:07:00,74.3,25.3,29.29,SW,225,0.0,4.0,36,0.00,,,0.00,meteohub,2013-09-14 22:07:00,
2013-09-14 18:12:00,74.1,20.3,29.29,SW,225,1.0,4.0,33,0.00,,,0.00,meteohub,2013-09-14 22:12:00,
2013-09-14 18:17:00,73.9,20.1,29.29,West,270,3.0,4.0,33,0.00,,,0.00,meteohub,2013-09-14 22:17:00,
2013-09-14 18:22:00,73.2,21.2,29.29,WSW,248,2.0,4.0,34,0.00,,,0.00,meteohub,2013-09-14 22:22:00,
2013-09-14 18:27:00,73.0,21.0,29.29,WSW,248,1.0,4.0,34,0.00,,,0.00,meteohub,2013-09-14 22:27:00,
2013-09-14 18:32:00,72.7,20.8,29.29,WSW,248,3.0,4.0,34,0.00,,,0.00,meteohub,2013-09-14 22:32:00,
2013-09-14 18:37:00,73.0,21.0,29.29,WSW,248,1.0,4.0,34,0.00,,,0.00,meteohub,2013-09-14 22:37:00,
2013-09-14 18:42:00,72.7,20.8,29.29,West,270,1.0,4.0,34,0.00,,,0.00,meteohub,2013-09-14 22:42:00,
2013-09-14 18:47:00,69.4,19.9,29.29,SW,225,1.0,4.0,35,0.00,,,0.00,meteohub,2013-09-14 22:47:00,
2013-09-14 18:49:00,68.5,19.2,29.29,West,270,1.0,4.0,35,0.00,,,0.00,meteohub,2013-09-14 22:49:00,
2013-09-14 18:54:00,67.1,18.0,29.29,West,270,2.0,2.0,35,0.00,,,0.00,meteohub,2013-09-14 22:54:00,
2013-09-14 18:59:00,65.8,17.1,29.29,WNW,292,1.0,3.0,35,0.00,,,0.00,meteohub,2013-09-14 22:59:00,
2013-09-14 19:04:00,65.3,16.5,29.29,WSW,248,1.0,3.0,35,0.00,,,0.00,meteohub,2013-09-14 23:04:00,
2013-09-14 19:09:00,64.9,16.3,29.29,West,270,1.0,3.0,35,0.00,,,0.00,meteohub,2013-09-14 23:09:00,
2013-09-14 19:14:00,64.2,17.2,29.29,West,270,0.0,2.0,36,0.00,,,0.00,meteohub,2013-09-14 23:14:00,
2013-09-14 19:19:00,63.9,16.9,29.29,West,270,0.0,2.0,36,0.00,,,0.00,meteohub,2013-09-14 23:19:00,
2013-09-14 19:25:00,63.3,16.5,29.29,West,270,0.0,2.0,36,0.00,,,0.00,meteohub,2013-09-14 23:25:00,
2013-09-14 19:30:00,63.0,16.2,29.29,West,270,0.0,1.0,36,0.00,,,0.00,meteohub,2013-09-14 23:30:00,
2013-09-14 19:35:00,62.6,15.8,29.29,West,270,1.0,1.0,36,0.00,,,0.00,meteohub,2013-09-14 23:35:00,
2013-09-14 19:40:00,62.2,15.6,29.29,West,270,1.0,2.0,36,0.00,,,0.00,meteohub,2013-09-14 23:40:00,
2013-09-14 19:45:00,61.9,15.3,29.32,West,270,0.0,2.0,36,0.00,,,0.00,meteohub,2013-09-14 23:45:00,
2013-09-14 19:50:00,61.2,14.7,29.32,West,270,0.0,1.0,36,0.00,,,0.00,meteohub,2013-09-14 23:50:00,
2013-09-14 19:55:00,60.4,15.4,29.32,West,270,0.0,0.0,37,0.00,,,0.00,meteohub,2013-09-14 23:55:00,
2013-09-14 20:00:00,59.9,15.1,29.32,West,270,0.0,0.0,37,0.00,,,0.00,meteohub,2013-09-15 00:00:00,
2013-09-14 20:05:00,59.4,14.5,29.32,West,270,0.0,0.0,37,0.00,,,0.00,meteohub,2013-09-15 00:05:00,
2013-09-14 20:10:00,59.0,16.9,29.32,West,270,0.0,0.0,39,0.00,,,0.00,meteohub,2013-09-15 00:10:00,
2013-09-14 20:15:00,58.6,16.5,29.32,West,270,0.0,0.0,39,0.00,,,0.00,meteohub,2013-09-15 00:15:00,
2013-09-14 20:20:00,58.1,16.2,29.32,West,270,0.0,0.0,39,0.00,,,0.00,meteohub,2013-09-15 00:20:00,
2013-09-14 20:25:00,57.9,16.0,29.32,West,270,0.0,0.0,39,0.00,,,0.00,meteohub,2013-09-15 00:25:00,
2013-09-14 20:30:00,57.4,15.6,29.32,West,270,0.0,0.0,39,0.00,,,0.00,meteohub,2013-09-15 00:30:00,
2013-09-14 20:35:00,57.2,15.4,29.32,West,270,0.0,0.0,39,0.00,,,0.00,meteohub,2013-09-15 00:35:00,
2013-09-14 20:40:00,57.0,16.3,29.32,West,270,0.0,0.0,40,0.00,,,0.00,meteohub,2013-09-15 00:40:00,
2013-09-14 20:46:00,56.8,16.3,29.32,West,270,0.0,0.0,40,0.00,,,0.00,meteohub,2013-09-15 00:46:00,
2013-09-14 20:51:00,56.7,16.2,29.32,West,270,0.0,0.0,40,0.00,,,0.00,meteohub,2013-09-15 00:51:00,
2013-09-14 20:56:00,56.8,16.3,29.32,West,270,0.0,0.0,40,0.00,,,0.00,meteohub,2013-09-15 00:56:00,
2013-09-14 21:01:00,57.2,15.4,29.35,West,270,1.0,1.0,39,0.00,,,0.00,meteohub,2013-09-15 01:01:00,
2013-09-14 21:06:00,57.2,15.4,29.35,West,270,1.0,1.0,39,0.00,,,0.00,meteohub,2013-09-15 01:06:00,
2013-09-14 21:42:00,56.1,17.8,29.35,West,270,1.0,1.0,42,0.00,,,0.00,meteohub,2013-09-15 01:42:00,
2013-09-14 21:47:00,56.1,17.8,29.35,West,270,1.0,1.0,42,0.00,,,0.00,meteohub,2013-09-15 01:47:00,
2013-09-14 22:12:00,55.9,20.7,29.35,SW,225,0.0,-999.0,45,0.00,,,0.00,meteohub,2013-09-15 02:12:00,
2013-09-14 22:18:00,55.9,20.7,29.35,SW,225,0.0,0.0,45,0.00,,,0.00,meteohub,2013-09-15 02:18:00,
2013-09-14 22:23:00,55.8,20.5,29.35,SW,225,0.0,0.0,45,0.00,,,0.00,meteohub,2013-09-15 02:23:00,
2013-09-14 22:28:00,55.8,20.5,29.32,SW,225,0.0,0.0,45,0.00,,,0.00,meteohub,2013-09-15 02:28:00,
2013-09-14 22:33:00,55.8,20.5,29.32,SW,225,0.0,0.0,45,0.00,,,0.00,meteohub,2013-09-15 02:33:00,
2013-09-14 22:38:00,55.9,20.7,29.32,SW,225,0.0,1.0,45,0.00,,,0.00,meteohub,2013-09-15 02:38:00,
2013-09-14 22:43:00,55.9,20.7,29.32,SW,225,1.0,1.0,45,0.00,,,0.00,meteohub,2013-09-15 02:43:00,
2013-09-14 22:48:00,55.9,20.7,29.32,SW,225,1.0,2.0,45,0.00,,,0.00,meteohub,2013-09-15 02:48:00,
2013-09-14 22:53:00,55.9,20.7,29.32,SW,225,0.0,2.0,45,0.00,,,0.00,meteohub,2013-09-15 02:53:00,
2013-09-14 22:58:00,55.9,20.7,29.35,SW,225,0.0,2.0,45,0.00,,,0.00,meteohub,2013-09-15 02:58:00,
2013-09-14 23:03:00,55.8,20.5,29.35,SW,225,0.0,2.0,45,0.00,,,0.00,meteohub,2013-09-15 03:03:00,
2013-09-14 23:08:00,55.4,20.3,29.35,SW,225,0.0,1.0,45,0.00,,,0.00,meteohub,2013-09-15 03:08:00,
2013-09-14 23:14:00,55.0,20.8,29.32,SW,225,0.0,1.0,46,0.00,,,0.00,meteohub,2013-09-15 03:14:00,
2013-09-14 23:19:00,54.9,20.7,29.32,SW,225,0.0,0.0,46,0.00,,,0.00,meteohub,2013-09-15 03:19:00,
2013-09-14 23:24:00,54.5,20.3,29.32,SW,225,0.0,0.0,46,0.00,,,0.00,meteohub,2013-09-15 03:24:00,
2013-09-14 23:29:00,54.3,20.3,29.32,SW,225,0.0,0.0,46,0.00,,,0.00,meteohub,2013-09-15 03:29:00,
2013-09-14 23:34:00,54.3,20.3,29.32,SW,225,1.0,0.0,46,0.00,,,0.00,meteohub,2013-09-15 03:34:00,
2013-09-14 23:39:00,54.3,21.2,29.32,SW,225,1.0,1.0,47,0.00,,,0.00,meteohub,2013-09-15 03:39:00,
2013-09-14 23:44:00,54.3,21.2,29.32,SW,225,1.0,2.0,47,0.00,,,0.00,meteohub,2013-09-15 03:44:00,
2013-09-14 23:49:00,54.1,21.0,29.32,SW,225,0.0,2.0,47,0.00,,,0.00,meteohub,2013-09-15 03:49:00,
2013-09-14 23:54:00,54.0,21.7,29.32,SW,225,0.0,2.0,48,0.00,,,0.00,meteohub,2013-09-15 03:54:00,
2013-09-14 23:59:00,54.0,21.7,29.32,SW,225,0.0,1.0,48,0.00,,,0.00,meteohub,2013-09-15 03:59:00,